China Weather Zhangzi today hourly
Home / China / Zhangzi / Zhangzi Hour By Hour Weather - 24hr View

48 Hour View

Time Temp. Wind Dir. Humidity Wind Spd. Precip.
2020-07-21 19:00pm 23°C S 74% 19km/h 9%
2020-07-21 20:00pm 20°C NE 74% 10km/h 9%
2020-07-21 21:00pm 20°C NE 76% 1km/h 9%
2020-07-21 22:00pm 20°C NE 79% 11km/h 9%
2020-07-21 23:00pm 19°C NE 82% 5km/h 9%
2020-07-22 00:00pm 19°C NE 85% 2km/h 12%
2020-07-22 01:00pm 19°C NE 88% 6km/h 19%
2020-07-22 02:00pm 19°C NE 91% 9km/h 19%
2020-07-22 03:00pm 19°C NE 91% 8km/h 24%
2020-07-22 04:00pm 19°C NE 91% 1km/h 55%
2020-07-22 05:00pm 19°C NE 90% 5km/h 55%
2020-07-22 06:00pm 19°C NE 90% 7km/h 55%
2020-07-22 07:00pm 19°C NE 90% 10km/h 49%
2020-07-22 08:00pm 19°C NE 89% 9km/h 47%
2020-07-22 09:00pm 19°C NE 87% 5km/h 51%
2020-07-22 10:00pm 20°C NE 84% 2km/h 55%
2020-07-22 11:00pm 20°C NE 82% 7km/h 47%
2020-07-22 12:00pm 21°C NE 80% 3km/h 55%
2020-07-22 13:00pm 22°C NE 77% 10km/h 16%
2020-07-22 14:00pm 22°C NE 75% 7km/h 12%
2020-07-22 15:00pm 22°C NE 77% 11km/h 12%
2020-07-22 16:00pm 22°C NE 78% 4km/h 12%
2020-07-22 17:00pm 22°C NE 79% 7km/h 12%
2020-07-22 18:00pm 22°C NE 77% 7km/h 10%

More Local Information

Hourly Weather Nearby

Bookmark and Share

Become A Member